Riverton, WY

5:47 PM MST on January 18, 2018 (GMT -0700)
Riverton Regional

Weather History for KRIW - November, 2013

Change the Weather History Date:

Monday, November 11, 2013

  Actual Average Record
Temperature  
Mean Temperature 41 °F 33 °F  
Max Temperature 52 °F 44 °F 62 °F (1999)
Min Temperature 29 °F 22 °F -10 °F (2000)
Degree Days  
Heating Degree Days 24 32  
Month to date heating degree days 294 324  
Since 1 July heating degree days 1240 1204  
Cooling Degree Days 0 0  
Month to date cooling degree days 0 0  
Year to date cooling degree days 798 494  
Moisture  
Dew Point 26 °F    
Average Humidity 65    
Maximum Humidity 92    
Minimum Humidity 38    
Precipitation  
Precipitation 0.00 in 0.02 in 0.65 in (1955)
Month to date precipitation 0.00 0.20  
Year to date precipitation 9.01 8.81  
Snow  
Snow 0.00 in - - ()
Month to date snowfall 0.0  
Since 1 July snowfall 24.8  
Since 1 September snowfall 24.8  
Snow Depth 0.00 in    
Sea Level Pressure  
Sea Level Pressure 30.33 in    
Wind  
Wind Speed 9 mph (North)    
Max Wind Speed 17 mph    
Max Gust Speed 22 mph    
Visibility 10 miles    
Events      
T = Trace of Precipitation, MM = Missing Value Source: NWS Daily Summary

Daily Weather History Graph

Daily Weather History Graph

Search for Another Location

Airport or City:

Trip Planner

Search our weather history database for the weather conditions in past years. The results will help you decide how hot, cold, wet, or windy it might be!

Date:

Astronomy

Nov. 11, 2013 Rise Set
Actual Time 7:01 AM MST 4:53 PM MST
Civil Twilight 6:31 AM MST 5:23 PM MST
Nautical Twilight 5:57 AM MST 5:58 PM MST
Astronomical Twilight 5:23 AM MST 6:31 PM MST
Moon 1:44 PM MST (11/11) 12:40 AM MST (11/11)
Length of Visible Light 10h 52m
Length of Day
9h 51m
Waxing Gibbous, 67% of the Moon is Illuminated
Nov 11
Waxing Gibbous
Nov 17
Full
Nov 25
Last Quarter
Dec 2
New
Dec 9
First Quarter

Hourly Weather History & Observations

Time (MST) Temp. Windchill Dew Point Humidity Pressure Visibility Wind Dir Wind Speed Gust Speed Precip Events Conditions
12:53 AM 39.0 °F 31.8 °F 25.0 °F 57% 30.14 in 10.0 mi West 11.5 mph - N/A   Clear
1:53 AM 39.0 °F 32.8 °F 24.1 °F 55% 30.14 in 10.0 mi WSW 9.2 mph - N/A   Clear
2:53 AM 35.1 °F 30.1 °F 25.0 °F 67% 30.14 in 10.0 mi WSW 5.8 mph - N/A   Clear
3:53 AM 39.0 °F 32.8 °F 24.1 °F 55% 30.13 in 10.0 mi WSW 9.2 mph - N/A   Clear
4:53 AM 42.1 °F 34.5 °F 23.0 °F 47% 30.15 in 10.0 mi West 15.0 mph - N/A   Clear
5:53 AM 39.0 °F 33.4 °F 23.0 °F 53% 30.22 in 10.0 mi West 8.1 mph - N/A   Clear
6:53 AM 41.0 °F 34.7 °F 23.0 °F 49% 30.22 in 10.0 mi West 10.4 mph - N/A   Clear
7:53 AM 42.1 °F 37.1 °F 23.0 °F 47% 30.24 in 10.0 mi WSW 8.1 mph - N/A   Clear
8:53 AM 39.9 °F - 25.0 °F 55% 30.29 in 10.0 mi Calm Calm - N/A   Clear
9:53 AM 41.0 °F 37.1 °F 28.0 °F 60% 30.30 in 10.0 mi ENE 5.8 mph - N/A   Clear
10:53 AM 45.0 °F 40.1 °F 28.0 °F 52% 30.30 in 10.0 mi NE 9.2 mph - N/A   Clear
11:53 AM 48.0 °F - 28.0 °F 46% 30.28 in 10.0 mi NE 11.5 mph - N/A   Clear
12:53 PM 50.0 °F - 26.1 °F 39% 30.28 in 10.0 mi NE 10.4 mph - N/A   Clear
1:53 PM 51.1 °F - 27.0 °F 39% 30.28 in 10.0 mi ENE 11.5 mph - N/A   Clear
2:53 PM 51.1 °F - 27.0 °F 39% 30.30 in 10.0 mi NE 11.5 mph - N/A   Clear
3:53 PM 48.9 °F - 27.0 °F 43% 30.33 in 10.0 mi NE 11.5 mph - N/A   Clear
4:53 PM 44.1 °F 37.4 °F 28.9 °F 55% 30.38 in 10.0 mi North 13.8 mph - N/A   Clear
5:53 PM 39.0 °F 31.0 °F 28.0 °F 65% 30.45 in 10.0 mi NE 13.8 mph - N/A   Clear
6:53 PM 37.0 °F 28.9 °F 28.0 °F 70% 30.49 in 10.0 mi ENE 12.7 mph - N/A   Clear
7:53 PM 34.0 °F 27.2 °F 28.0 °F 79% 30.52 in 10.0 mi ENE 8.1 mph - N/A   Clear
8:53 PM 30.9 °F 26.2 °F 26.1 °F 82% 30.57 in 10.0 mi North 4.6 mph - N/A   Clear
9:53 PM 28.9 °F 20.4 °F 26.1 °F 89% 30.59 in 10.0 mi NW 9.2 mph - N/A   Clear
10:53 PM 32.0 °F 22.5 °F 28.9 °F 88% 30.56 in 10.0 mi NW 12.7 mph - N/A   Clear
11:53 PM 30.0 °F - 26.1 °F 85% 30.56 in 10.0 mi Calm Calm - N/A   Clear